Rbgn^[z[y[W
メイン
   新天体発見情報
     Comet P/2019 LM4 (Palomar)
投稿するにはまず登録を

スレッド表示 | 新しいものから 前のトピック | 次のトピック | 下へ
投稿者 スレッド
佐藤裕久
投稿日時: 2020-5-20 11:25
モデレータ
登録日: 2005-6-12
居住地: 日本
投稿: 2111
オンライン
Comet P/2019 LM4 (Palomar)

2019年6月4日と7日、Palomar (I41)の1.2-m f/2.4 Schmidt望遠鏡で得た画像から外見上の
小惑星状天体が発見され、小惑星符号 2019 LM4が付与されていた (MPS 1001527)。
B. Liの通報によると、5月11日UT、G. Zhaoriは、L. F. Huが "Chinese Near Earth Object 
Survey: 中国地球近傍天体調査"のコースに紫金山天文台XuYi観測所 (D29)の1.04-m f/1.8 
Schmidt望遠鏡で得た画像から伸びている天体を発見した。
この天体は、小惑星センターのNEOCP webpageに公表される前、5月12日、Haleakalaにある
Pan-STARRS1の1.8-m Ritchey-Chretien 反射望遠鏡で得た画像から独立して発見した。
Y. Ramanjooloo (ハワイ大学)の報告では、FWHM(半値全幅)は近傍の恒星の1".2 に比べて
3".6であった。
小惑星センターのPCCP webpageに公表後、 P. Birtwhistle (Great Shefford, Berkshire,
英国; 5月12.94日UT、0.41-m f/6.3 Schmidt-Cassegrain反射望遠鏡,13" × 15"の拡散した
コマを見つけた。少し北に伸びているが、明らかな尾はなかった)らCCD位置観測者によって
彗星状と観測された。

彗星機能の追加報告は次の通り:

OC   Date        Reporter           Coma    Tail    PA          Exposures
F51  2020-05-12  Y. Ramanjooloo       4"
J95  2020-05-12  P. Birtwhistle      13"
118  2020-05-12  S. Gajdos           15"                        12x150s
H06  2020-05-13  H. Sato             15"                         7x60s
U71  2020-05-13  S. Deen              6"                        32x20s
G40  2020-05-13  N. Paul             14"     21"    133          6x50s
X02  2020-05-13  E. Guido            15"                        14x120s
I52  2020-05-13  D. Rankin           12"
G40  2020-05-13  M. Suzuki           14"                         4x50s
H06  2020-05-13  A. Valvasori        12"                        16x60
J95  2020-05-13  P. Birtwhistle      20"                         600s
B49  2020-05-13  J. Camarasa          9"
323  2020-05-13  P. Camilleri        10"                         120s
B96  2020-05-13  E. Bryssinck        24"
H06  2020-05-14  R. Ligustri         15"                         5x180s
F65  2020-05-14  P. Breitenstein      6"      9"    90           6x70s

2019 LM4の発見位置は次のとおり、

     2019 UT             R.A. (2000) Decl.       Mag.
     June  4.16856    8 00 10.21   +46 15 41.0   19.0
           4.17185    8 00 10.64   +46 15 40.6   18.7
           4.17513    8 00 11.26   +46 15 39.6   19.6
           4.17843    8 00 11.80   +46 15 37.9   18.6
           7.16900    8 08 23.09   +46 00 47.9   19.1
           7.17189    8 08 23.57   +46 00 47.5   19.0
           7.17478    8 08 24.07   +46 00 46.5   18.9
           7.17767    8 08 24.58   +46 00 44.6   18.5

再発見位置は次のとおり、

     2020 UT             R.A. (2000) Decl.       Mag.   Observer
     May  11.64514   15 29 30.70   + 4 27 21.9   16.8   Hu
          11.65928   15 29 29.90   + 4 27 18.2   16.7    "
          11.67342   15 29 29.11   + 4 27 14.3   16.9    "
          12.34334   15 28 52.49   + 4 24 17.0   17.4   Pan-STARRS1
          12.35598   15 28 51.78   + 4 24 13.6   17.4    "
          12.36865   15 28 51.08   + 4 24 10.3   17.4    "
          12.38143   15 28 50.36   + 4 24 06.8   17.4    "

MPCの楕円軌道要素と位置推算表は次のとおり、

Orbital elements:
    P/2019 LM4 (Palomar)                                                        
Epoch 2019 June 6.0 TT = JDT 2458640.5                                          
T 2019 June 18.23319 TT                                 Rudenko                 
q   2.3713551            (2000.0)            P               Q                  
n   0.07197957     Peri.   68.36086     -0.60629755     -0.55759450             
a   5.7235199      Node    72.85926     +0.30622933     -0.82171654             
e   0.5856824      Incl.   36.39560     +0.73391204     -0.11777225             
P  13.7                                                                         
From 105 observations 2019 June 4-2020 May 14, mean residual 0".5.              
                                                                                
    P/2019 LM4 (Palomar)                                                        
Epoch 2020 May 31.0 TT = JDT 2459000.5                                          
T 2019 June 18.24801 TT                                 Rudenko                 
q   2.3717727            (2000.0)            P               Q                  
n   0.07202381     Peri.   68.37689     -0.60646755     -0.55742351             
a   5.7211762      Node    72.85965     +0.30600433     -0.82180220             
e   0.5854397      Incl.   36.39449     +0.73386543     -0.11798381             
P  13.7                                                                         
From 105 observations 2019 June 4-2020 May 14, mean residual 0".5.              
                                                                                
    P/2019 LM4 (Palomar)                                                        
Epoch 2033 Feb. 12.0 TT = JDT 2463640.5                                         
T 2033 Feb. 6.42010 TT                                  Rudenko                 
q   2.3660448            (2000.0)            P               Q                  
n   0.07219930     Peri.   68.24275     -0.60366308     -0.56092975             
a   5.7119017      Node    72.71002     +0.30937947     -0.81974054             
e   0.5857693      Incl.   36.39399     +0.73476202     -0.11568601             
P  13.7                                                                         
From 105 observations 2019 June 4-2020 May 14, mean residual 0".5.              
                                                                                
Ephemeris:
Date    TT    R. A. (2000) Decl.     Delta      r    Elong.  Phase   m1
2020 04 14    15 53 05.5 +05 38 45   2.5385  3.3795   141.3    10.7  16.8
...
2020 04 29    15 41 00.0 +05 12 06   2.5290  3.4563   152.9     7.6  16.9
...
2020 05 07    15 33 46.1 +04 46 18   2.5486  3.4974   156.6     6.6  17.0
...
2020 05 13    15 28 16.5 +04 21 21   2.5752  3.5284   157.2     6.4  17.0
2020 05 14    15 27 21.9 +04 16 43   2.5806  3.5335   157.1     6.4  17.0
2020 05 15    15 26 27.6 +04 11 59   2.5863  3.5387   156.9     6.4  17.1
...
2020 05 21    15 21 08.4 +03 40 49   2.6267  3.5697   155.0     6.9  17.1
...
2020 05 29    15 14 31.8 +02 52 37   2.6964  3.6111   150.2     8.0  17.2
...
2020 06 13    15 04 26.1 +01 05 27   2.8721  3.6889   137.9    10.6  17.5

(MPEC 2020-J68、CBET 4775)

スレッド表示 | 新しいものから 前のトピック | 次のトピック | トップ

投稿するにはまず登録を
 
© 1999 Tsutomu Seki.